Tracking 25709 objects as of 24-May-2022
HD Live streaming from Space Station
objects crossing your sky now

COSMOS 1275 DEB

Track COSMOS 1275 DEB now!
10-day predictions


NORAD ID: 14406
Int'l Code: 1981-053JE
Perigee: 851.0 km
Apogee: 883.6 km
Inclination: 82.8 °
Period: 102.1 minutes
Semi major axis: 7238 km
RCS: 0.0178 m2 (small)
Launch date: June 4, 1981
Source: Commonwealth of Independent States (former USSR) (CIS)
Launch site: PLESETSK MISSILE AND SPACE COMPLEX (PKMTR)

Note: This is SATELLITE DEBRIS
aabbcc
Your satellite tracking list
Your tracking list is empty




NASA's NSSDC Master Catalog

Two Line Element Set (TLE):
1 14406U 81053JB  22144.46389644  .00002485  00000-0  14031-2 0  9999
2 14406  82.8408 138.4280 0022520 316.8531 207.8518 14.09771035 11797
Source of the keplerian elements: AFSPC